Sigfox identifier Datetime Temperature Humidity SNR
003A4CBC 2019-04-23 14:41:41 16.3 30 23.8
003A4CBC 2019-04-23 14:07:11 16.3 30 23.7
003A4CBC 2019-04-23 13:32:41 16.1 30 23.6
003A4CBC 2019-04-23 12:58:11 16 30 23.5
003A4CBC 2019-04-23 12:23:41 15.8 30 23.3
003A4CBC 2019-04-23 11:49:10 15.8 29 23.4
003A4CBC 2019-04-23 11:14:40 15.7 29 23.2
003A4CBC 2019-04-23 10:40:09 15.6 29 23
003A4CBC 2019-04-23 10:05:37 15.6 29 22.8
003A4CBC 2019-04-23 09:31:06 15.6 29 22.7
003A4CBC 2019-04-23 08:56:36 15.6 29 22.5
003A4CBC 2019-04-23 08:22:07 15.6 29 22.4
003A4CBC 2019-04-23 07:47:37 15.6 29 22.4
003A4CBC 2019-04-23 07:13:05 15.6 29 22.4
003A4CBC 2019-04-23 06:38:33 15.6 29 22.5
003A4CBC 2019-04-23 06:04:03 15.6 29 22.4
003A4CBC 2019-04-23 05:29:32 15.6 29 22.5
003A4CBC 2019-04-23 04:55:02 15.6 29 22.6
003A4CBC 2019-04-23 04:20:33 15.6 29 22.6
003A4CBC 2019-04-23 03:46:03 15.6 29 22.7
003A4CBC 2019-04-23 03:11:33 15.6 29 22.7
003A4CBC 2019-04-23 02:37:04 15.6 29 22.6
003A4CBC 2019-04-23 02:02:34 15.6 29 22.5
003A4CBC 2019-04-23 01:28:04 15.6 29 22.6
003A4CBC 2019-04-23 00:53:35 15.6 29 22.6
003A4CBC 2019-04-23 00:19:04 15.7 29 22.6
003A4CBC 2019-04-22 23:44:34 15.6 29 22.6
003A4CBC 2019-04-22 23:10:04 15.7 29 22.6
003A4CBC 2019-04-22 22:35:35 15.8 29 22.6
003A4CBC 2019-04-22 22:01:07 15.8 29 22.6
003A4CBC 2019-04-22 21:26:37 15.8 29 23.4
003A4CBC 2019-04-22 20:52:09 15.8 29 23.4
003A4CBC 2019-04-22 20:17:40 15.9 29 23.4
003A4CBC 2019-04-22 19:43:11 16 29 23.4
003A4CBC 2019-04-22 19:08:41 16 29 23.5
003A4CBC 2019-04-22 18:34:11 16 29 23.6
003A4CBC 2019-04-22 17:59:42 16 29 23.6
003A4CBC 2019-04-22 17:25:14 16 29 23.6
003A4CBC 2019-04-22 16:50:45 15.9 29 23.6
003A4CBC 2019-04-22 16:16:15 15.8 29 23.6
003A4CBC 2019-04-22 15:41:46 15.8 29 23.5
003A4CBC 2019-04-22 15:07:16 15.8 28 23.5
003A4CBC 2019-04-22 14:32:46 15.8 28 23.5
003A4CBC 2019-04-22 13:58:17 15.8 28 23.5
003A4CBC 2019-04-22 13:23:48 15.7 28 23.5
003A4CBC 2019-04-22 12:49:17 15.6 28 23.5
003A4CBC 2019-04-22 12:14:47 15.6 28 23.6
003A4CBC 2019-04-22 11:40:18 15.7 28 23.5
003A4CBC 2019-04-22 11:05:52 15.8 28 23.5
003A4CBC 2019-04-22 10:31:21 15.6 28 23.4
003A4CBC 2019-04-22 09:56:52 15.6 28 23.4
003A4CBC 2019-04-22 09:22:24 15.6 28 23.4
003A4CBC 2019-04-22 08:47:57 15.6 28 23.5
003A4CBC 2019-04-22 08:13:28 15.6 28 23.4
003A4CBC 2019-04-22 07:38:58 15.6 28 22.8
003A4CBC 2019-04-22 07:04:28 15.6 28 22.7
003A4CBC 2019-04-22 06:29:59 15.6 28 22.8
003A4CBC 2019-04-22 05:55:30 15.6 28 22.7
003A4CBC 2019-04-22 05:21:01 15.6 28 22.8
003A4CBC 2019-04-22 04:46:31 15.6 28 22.8
003A4CBC 2019-04-22 04:12:01 15.6 28 22.7
003A4CBC 2019-04-22 03:37:32 15.6 28 22.7
003A4CBC 2019-04-22 03:03:03 15.6 28 22.7
003A4CBC 2019-04-22 02:28:32 15.6 28 22.7
003A4CBC 2019-04-22 01:54:02 15.6 28 22.8
003A4CBC 2019-04-22 01:19:32 15.6 28 22.9
003A4CBC 2019-04-22 00:45:02 15.6 28 22.9
003A4CBC 2019-04-22 00:10:31 15.6 28 22.8
003A4CBC 2019-04-21 23:36:01 15.4 28 22.8
003A4CBC 2019-04-21 23:01:33 15.5 28 22.8
003A4CBC 2019-04-21 22:27:01 15.6 28 22.7
003A4CBC 2019-04-21 21:52:32 15.6 28 22.6
003A4CBC 2019-04-21 21:18:02 15.6 28 22.6
003A4CBC 2019-04-21 20:43:33 15.5 28 22.5
003A4CBC 2019-04-21 20:09:04 15.5 28 22.7
003A4CBC 2019-04-21 19:34:35 15.5 28 22.7
003A4CBC 2019-04-21 19:00:05 15.4 28 22.7
003A4CBC 2019-04-21 18:25:36 15.4 28 22.6
003A4CBC 2019-04-21 17:51:05 15.4 27 22.6
003A4CBC 2019-04-21 17:16:35 15.4 27 22.6
003A4CBC 2019-04-21 16:42:05 15.4 27 22.5
003A4CBC 2019-04-21 16:07:36 15.4 27 22.5
003A4CBC 2019-04-21 15:33:06 15.4 27 22.4
003A4CBC 2019-04-21 14:58:36 15.4 27 22.4
003A4CBC 2019-04-21 14:24:06 15.4 27 22.4
003A4CBC 2019-04-21 13:49:36 15.4 27 22.4
003A4CBC 2019-04-21 13:15:05 15.4 27 22.4
003A4CBC 2019-04-21 12:40:34 15.4 27 22.3
003A4CBC 2019-04-21 12:06:03 15.4 27 22.4
003A4CBC 2019-04-21 11:31:31 15.4 27 22.3
003A4CBC 2019-04-21 10:56:59 15.4 27 22.1
003A4CBC 2019-04-21 10:22:29 15.4 27 22.2
003A4CBC 2019-04-21 09:47:58 15.6 27 22.3
003A4CBC 2019-04-21 09:13:27 15.6 27 22.3
003A4CBC 2019-04-21 08:38:55 15.6 27 22.3
003A4CBC 2019-04-21 08:04:26 15.6 27 22.4
003A4CBC 2019-04-21 07:29:58 15.6 27 22.6
003A4CBC 2019-04-21 06:55:27 15.6 27 22.6
003A4CBC 2019-04-21 06:20:57 15.6 27 22.7
003A4CBC 2019-04-21 05:46:27 15.6 27 22.7
003A4CBC 2019-04-21 05:11:57 15.6 27 22.7
003A4CBC 2019-04-21 04:37:28 15.6 27 22.8
003A4CBC 2019-04-21 04:02:58 15.6 27 22.9
003A4CBC 2019-04-21 03:28:28 15.6 27 22.9
003A4CBC 2019-04-21 02:53:58 15.6 27 22.8
003A4CBC 2019-04-21 02:19:29 15.6 27 22.9
003A4CBC 2019-04-21 01:45:00 15.6 27 23
003A4CBC 2019-04-21 01:10:31 15.6 27 23.1
003A4CBC 2019-04-21 00:36:02 15.6 27 22.9
003A4CBC 2019-04-21 00:01:34 15.6 27 22.9
003A4CBC 2019-04-20 23:27:06 15.5 27 22.9
003A4CBC 2019-04-20 22:52:37 15.5 27 22.9
003A4CBC 2019-04-20 22:18:08 15.6 27 23
003A4CBC 2019-04-20 21:43:39 15.6 26 23
003A4CBC 2019-04-20 21:09:10 15.6 26 22.9
003A4CBC 2019-04-20 20:34:40 15.6 26 23
003A4CBC 2019-04-20 20:00:10 15.6 26 23
003A4CBC 2019-04-20 19:25:40 15.6 26 23
003A4CBC 2019-04-20 18:51:11 15.6 26 22.8
003A4CBC 2019-04-20 18:16:40 15.6 26 22.8
003A4CBC 2019-04-20 17:42:10 15.6 26 22.8
003A4CBC 2019-04-20 17:07:40 15.5 26 22.8
003A4CBC 2019-04-20 16:33:08 15.6 26 22.8
003A4CBC 2019-04-20 15:58:36 15.6 26 22.7
003A4CBC 2019-04-20 15:24:06 15.6 26 22.7
003A4CBC 2019-04-20 14:49:37 15.4 26 22.6
003A4CBC 2019-04-20 14:15:08 15.4 26 22.6
003A4CBC 2019-04-20 13:40:40 15.4 26 22.6
003A4CBC 2019-04-20 13:06:11 15.4 26 22.6
003A4CBC 2019-04-20 12:31:43 15.5 26 22.6
003A4CBC 2019-04-20 11:57:15 15.5 26 22.6
003A4CBC 2019-04-20 11:22:47 15.6 26 22.6
003A4CBC 2019-04-20 10:48:19 15.6 26 22.5
003A4CBC 2019-04-20 10:13:51 15.6 26 22.7
003A4CBC 2019-04-20 09:39:23 15.6 26 22.7
003A4CBC 2019-04-20 09:04:55 15.6 26 22.7
003A4CBC 2019-04-20 08:30:26 15.6 26 22.7
003A4CBC 2019-04-20 07:55:58 15.6 26 22.6
003A4CBC 2019-04-20 07:21:29 15.7 26 22.7
003A4CBC 2019-04-20 06:47:01 15.6 26 22.6
003A4CBC 2019-04-20 06:12:32 15.6 26 22.6
003A4CBC 2019-04-20 05:38:03 15.6 26 22.6
003A4CBC 2019-04-20 05:03:36 15.6 26 22.9
003A4CBC 2019-04-20 04:29:07 15.6 26 22.9
003A4CBC 2019-04-20 03:54:38 15.6 26 22.9
003A4CBC 2019-04-20 03:20:09 15.8 26 22.9
003A4CBC 2019-04-20 02:45:41 15.8 26 22.9
003A4CBC 2019-04-20 02:11:11 15.8 25 22.9
003A4CBC 2019-04-20 01:36:41 15.8 25 22.9
003A4CBC 2019-04-20 01:02:11 15.9 25 23
003A4CBC 2019-04-20 00:27:40 16 25 23
003A4CBC 2019-04-19 23:53:08 16 25 22.9
003A4CBC 2019-04-19 23:18:37 16 25 22.8
003A4CBC 2019-04-19 22:44:06 16 25 22.9
003A4CBC 2019-04-19 22:09:36 16 25 22.9
003A4CBC 2019-04-19 21:35:06 16 25 23
003A4CBC 2019-04-19 21:00:35 16.1 25 22.9
003A4CBC 2019-04-19 20:26:06 16.1 25 22.9
003A4CBC 2019-04-19 19:51:36 16.1 25 22.9
003A4CBC 2019-04-19 19:17:06 16.3 25 23
003A4CBC 2019-04-19 18:42:36 16.2 25 23
003A4CBC 2019-04-19 18:08:05 16.2 25 23
003A4CBC 2019-04-19 17:33:36 16.1 25 22.9
003A4CBC 2019-04-19 16:59:06 16 25 23
003A4CBC 2019-04-19 16:24:36 16 25 23
003A4CBC 2019-04-19 15:50:07 16 25 23
003A4CBC 2019-04-19 15:15:38 16 25 23
003A4CBC 2019-04-19 14:41:06 15.9 25 23
003A4CBC 2019-04-19 14:06:37 15.8 25 22.9
003A4CBC 2019-04-19 13:32:12 15.8 25 22.8
003A4CBC 2019-04-19 12:57:38 15.8 25 22.8
003A4CBC 2019-04-19 12:23:08 15.8 25 22.9
003A4CBC 2019-04-19 11:48:39 15.8 25 22.8
003A4CBC 2019-04-19 11:14:09 15.8 25 22.8
003A4CBC 2019-04-19 10:39:39 15.8 25 22.7
003A4CBC 2019-04-19 10:05:08 15.7 25 22.7
003A4CBC 2019-04-19 09:30:39 15.7 25 22.7
003A4CBC 2019-04-19 08:56:09 15.7 25 22.7
003A4CBC 2019-04-19 08:21:40 15.6 24 22.6
003A4CBC 2019-04-19 07:47:10 15.8 24 22.5
003A4CBC 2019-04-19 07:12:42 15.8 24 22.5
003A4CBC 2019-04-19 06:38:12 15.8 24 22.6
003A4CBC 2019-04-19 06:03:42 15.8 24 22.6
003A4CBC 2019-04-19 05:29:15 15.8 24 22.5
003A4CBC 2019-04-19 04:54:41 15.8 24 22.6
003A4CBC 2019-04-19 04:20:11 15.8 24 22.7
003A4CBC 2019-04-19 03:45:39 15.9 24 22.8
003A4CBC 2019-04-19 03:11:10 16 24 22.8
003A4CBC 2019-04-19 02:36:40 16 24 22.8
003A4CBC 2019-04-19 02:02:10 16 24 22.9
003A4CBC 2019-04-19 01:27:39 16.1 24 23
003A4CBC 2019-04-19 00:53:09 16.3 24 23.1
003A4CBC 2019-04-19 00:18:39 16.3 24 23.2
003A4CBC 2019-04-18 23:44:09 16.4 24 23.4
003A4CBC 2019-04-18 23:09:38 16.5 24 23.4
003A4CBC 2019-04-18 22:35:08 16.5 24 23.4
003A4CBC 2019-04-18 22:00:36 16.6 24 23.5
003A4CBC 2019-04-18 21:26:06 16.7 24 23.5
003A4CBC 2019-04-18 20:51:35 16.6 24 23.5
003A4CBC 2019-04-18 20:17:05 16.7 24 23.6
003A4CBC 2019-04-18 19:42:35 16.7 24 23.6
003A4CBC 2019-04-18 19:08:05 16.7 24 23.6
003A4CBC 2019-04-18 18:33:36 16.7 24 23.7
003A4CBC 2019-04-18 17:59:07 16.6 24 23.6
003A4CBC 2019-04-18 17:24:37 16.5 24 23.6
003A4CBC 2019-04-18 16:50:08 16.5 24 23.6
003A4CBC 2019-04-18 16:15:38 16.5 24 23.6
003A4CBC 2019-04-18 15:41:08 16.5 24 23.6
003A4CBC 2019-04-18 15:06:39 16.3 24 23.5
003A4CBC 2019-04-18 14:32:09 16.3 24 23.5
003A4CBC 2019-04-18 13:57:40 16.2 24 23.4
003A4CBC 2019-04-18 13:23:09 16 23 23.3
003A4CBC 2019-04-18 12:48:39 16 23 23.4
003A4CBC 2019-04-18 12:14:08 16 23 23.2
003A4CBC 2019-04-18 11:39:38 16 23 23
003A4CBC 2019-04-18 11:05:08 16 23 22.8
003A4CBC 2019-04-18 10:30:38 16 23 22.7
003A4CBC 2019-04-18 09:56:08 15.9 23 22.6
003A4CBC 2019-04-18 09:21:36 15.9 23 22.6
003A4CBC 2019-04-18 08:47:05 16 23 22.6
003A4CBC 2019-04-18 08:12:34 16.3 23 22.6
003A4CBC 2019-04-18 07:38:03 16.3 23 22.5
003A4CBC 2019-04-18 07:03:32 16.1 23 22.4
003A4CBC 2019-04-18 06:29:01 16 23 22.5
003A4CBC 2019-04-18 05:54:31 16 23 22.7
003A4CBC 2019-04-18 05:20:00 16 23 22.7
003A4CBC 2019-04-18 04:45:30 16 23 22.7
003A4CBC 2019-04-18 04:11:02 16 23 22.6
003A4CBC 2019-04-18 03:36:30 16 23 22.5
003A4CBC 2019-04-18 03:02:01 16 23 22.3
003A4CBC 2019-04-18 02:27:31 16 23 22.2
003A4CBC 2019-04-18 01:53:02 16.2 23 22.2
003A4CBC 2019-04-18 01:18:33 16.3 23 22
003A4CBC 2019-04-18 00:44:04 16.4 23 22
003A4CBC 2019-04-18 00:09:34 16.5 23 22
003A4CBC 2019-04-17 23:35:03 16.5 23 21.9
003A4CBC 2019-04-17 23:00:34 16.6 23 21.7
003A4CBC 2019-04-17 22:26:04 16.7 23 21.6
003A4CBC 2019-04-17 21:51:35 16.5 23 21.6
003A4CBC 2019-04-17 21:17:06 16.5 23 21.6
003A4CBC 2019-04-17 20:42:37 16.5 22 21.5
003A4CBC 2019-04-17 20:08:09 16.4 22 21.5
003A4CBC 2019-04-17 19:33:40 16.4 22 21.4
003A4CBC 2019-04-17 18:59:09 16.4 22 21.3
003A4CBC 2019-04-17 18:24:40 16.3 22 21.4
003A4CBC 2019-04-17 17:50:10 16.3 22 21.3
003A4CBC 2019-04-17 17:15:42 16.3 22 21.4
003A4CBC 2019-04-17 16:41:12 16.3 22 21.2
003A4CBC 2019-04-17 16:06:42 16.3 22 20.9
003A4CBC 2019-04-17 15:32:11 16.3 22 20.8
003A4CBC 2019-04-17 14:57:42 16.3 22 20.7
003A4CBC 2019-04-17 14:23:12 16.4 22 20.6
003A4CBC 2019-04-17 13:14:11 16.5 22 20.6
003A4CBC 2019-04-17 12:39:42 16.5 22 20.7
003A4CBC 2019-04-17 12:05:11 16.5 22 20.6
003A4CBC 2019-04-17 11:30:42 16.5 22 20.6
003A4CBC 2019-04-17 10:56:12 16.5 22 20.5
003A4CBC 2019-04-17 10:21:43 16.5 21 20.4
003A4CBC 2019-04-17 09:47:11 16.5 21 20.3
003A4CBC 2019-04-17 09:12:41 16.5 21 20.1
003A4CBC 2019-04-17 08:38:10 16.7 21 20
003A4CBC 2019-04-17 08:03:39 16.9 21 20.1
003A4CBC 2019-04-17 07:29:07 17.1 21 20.3
003A4CBC 2019-04-17 06:54:35 17.3 21 20.5
003A4CBC 2019-04-17 06:20:03 17.3 21 20.5
003A4CBC 2019-04-17 05:45:32 17.3 21 20.3
003A4CBC 2019-04-17 05:11:01 17.4 21 20
003A4CBC 2019-04-17 04:36:30 17.5 21 19.8
003A4CBC 2019-04-17 04:02:00 17.5 21 19.6
003A4CBC 2019-04-17 03:27:31 17.6 21 19.1
003A4CBC 2019-04-17 02:53:01 17.8 21 18.8
003A4CBC 2019-04-17 02:18:32 17.8 21 19.1
003A4CBC 2019-04-17 01:44:03 17.8 21 19
003A4CBC 2019-04-17 01:09:33 17.6 21 19.3
003A4CBC 2019-04-17 00:35:03 17.5 21 18.9
003A4CBC 2019-04-17 00:00:33 17.5 21 19.3
003A4CBC 2019-04-16 23:26:03 17.5 21 19.6
003A4CBC 2019-04-16 22:51:34 17.5 21 19.7
003A4CBC 2019-04-16 22:17:05 18 21 19.8
003A4CBC 2019-04-16 21:42:34 18.2 21 20
003A4CBC 2019-04-16 21:08:04 18.4 21 20
003A4CBC 2019-04-16 20:33:34 18.6 21 20.2
003A4CBC 2019-04-16 19:59:06 18.6 21 20.4
003A4CBC 2019-04-16 19:24:34 18.6 21 20.6
003A4CBC 2019-04-16 18:50:04 18.6 21 20.9
003A4CBC 2019-04-16 18:15:33 18.8 21 21.1
003A4CBC 2019-04-16 16:32:01 19.5 21 21.5
003A4CBC 2019-04-16 15:57:30 19.7 21 21.3
003A4CBC 2019-04-16 15:22:59 19.9 20 21.2
003A4CBC 2019-04-16 14:48:29 20.5 20 21.4
003A4CBC 2019-04-16 13:39:31 21.2 21 21.6
003A4CBC 2019-04-16 13:04:59 21.2 21 21.6
003A4CBC 2019-04-16 12:30:29 21 21 21.9
003A4CBC 2019-04-16 11:55:59 21 21 22.1
003A4CBC 2019-04-16 11:21:27 21 21 22.3
003A4CBC 2019-04-16 10:46:56 20.9 21 22.4
003A4CBC 2019-04-16 10:12:24 21 21 22.3
003A4CBC 2019-04-16 09:37:54 21 21 22.5
003A4CBC 2019-04-16 09:03:23 21 21 22.4
003A4CBC 2019-04-16 08:28:52 20.9 21 22.7
003A4CBC 2019-04-16 07:54:20 21 21 22.6
003A4CBC 2019-04-16 07:19:49 21 21 22.6
003A4CBC 2019-04-16 06:45:16 21 20 22.7
003A4CBC 2019-04-16 06:10:45 21 20 22.7
003A4CBC 2019-04-16 05:36:15 21 20 22.6
003A4CBC 2019-04-16 05:01:44 21 20 22.8
003A4CBC 2019-04-16 04:27:13 21 20 22.8
003A4CBC 2019-04-16 03:52:43 21 20 22.8
003A4CBC 2019-04-16 03:18:15 21 20 22.8
003A4CBC 2019-04-16 02:43:45 21 20 22.5
003A4CBC 2019-04-16 02:09:16 21 20 22.4
003A4CBC 2019-04-16 01:34:48 21 20 22.4
003A4CBC 2019-04-16 01:00:18 21.1 20 22.6
003A4CBC 2019-04-16 00:25:49 21.2 20 22.5
003A4CBC 2019-04-15 23:51:19 21.2 20 22.5
003A4CBC 2019-04-15 23:16:48 21.2 20 22.5
003A4CBC 2019-04-15 22:42:18 21.2 20 22.6
003A4CBC 2019-04-15 22:07:47 21.2 20 22.5
003A4CBC 2019-04-15 21:33:17 21.1 20 22.7
003A4CBC 2019-04-15 20:58:46 21.2 19 22.8
003A4CBC 2019-04-15 20:24:15 21.2 19 23
003A4CBC 2019-04-15 19:49:44 21.2 19 23.2
003A4CBC 2019-04-15 19:15:15 21.2 19 23.2
003A4CBC 2019-04-15 18:40:44 21.2 19 23.3
003A4CBC 2019-04-15 18:06:13 21.2 19 23.3
003A4CBC 2019-04-15 17:31:42 21.4 19 23.3
003A4CBC 2019-04-15 16:57:12 21.4 19 23.1
003A4CBC 2019-04-15 16:22:41 21.4 19 23.3
003A4CBC 2019-04-15 15:48:10 21.6 19 23.2
003A4CBC 2019-04-15 15:13:39 21.6 18 24
003A4CBC 2019-04-15 14:39:08 21.8 18 24.5
003A4CBC 2019-04-15 14:04:37 21.8 18 24.6
003A4CBC 2019-04-15 13:30:10 22 18 24.6
003A4CBC 2019-04-15 12:55:36 22.2 18 24.7
003A4CBC 2019-04-15 12:21:06 22.4 17 24.8
003A4CBC 2019-04-15 11:46:33 22.3 16 24.9
003A4CBC 2019-04-15 11:12:01 22.3 16 24.9
003A4CBC 2019-04-15 10:37:30 22.2 17 24.8
003A4CBC 2019-04-15 10:02:58 22.2 17 24.8
003A4CBC 2019-04-15 09:28:26 22.2 17 24.8
003A4CBC 2019-04-15 08:53:55 22 17 24.8
003A4CBC 2019-04-15 08:19:23 22 17 24.9
003A4CBC 2019-04-15 07:44:52 22 17 25.4
003A4CBC 2019-04-15 07:10:19 21.9 17 25.4
003A4CBC 2019-04-15 06:35:47 21.8 17 25.5
003A4CBC 2019-04-15 06:01:14 21.8 17 25.4
003A4CBC 2019-04-15 05:26:42 21.8 17 25.3
003A4CBC 2019-04-15 04:52:10 21.8 17 25.2
003A4CBC 2019-04-15 04:17:39 21.8 17 25.2
003A4CBC 2019-04-15 03:43:08 21.8 18 25.2
003A4CBC 2019-04-15 03:08:37 21.8 18 25.3
003A4CBC 2019-04-15 02:34:07 21.8 18 25.5
003A4CBC 2019-04-15 01:59:37 21.8 18 25.4
003A4CBC 2019-04-15 01:25:07 21.8 18 25.5
003A4CBC 2019-04-15 00:50:38 21.8 18 25
003A4CBC 2019-04-15 00:16:07 21.8 18 24.5
003A4CBC 2019-04-14 23:41:35 21.8 18 24.4
003A4CBC 2019-04-14 23:07:04 21.8 18 24.5
003A4CBC 2019-04-14 22:32:33 21.9 18 24.5
003A4CBC 2019-04-14 21:58:02 22 18 24.4
003A4CBC 2019-04-14 21:23:31 22 18 24.3
003A4CBC 2019-04-14 20:49:01 22 18 24.5
003A4CBC 2019-04-14 20:14:31 22 18 24.5
003A4CBC 2019-04-14 19:40:02 22 18 24.7
003A4CBC 2019-04-14 19:05:31 22 18 24.7
003A4CBC 2019-04-14 18:31:00 22 18 24.9
003A4CBC 2019-04-14 17:56:28 22 18 24.9
003A4CBC 2019-04-14 17:21:57 21.9 18 24.5
003A4CBC 2019-04-14 16:47:26 22 18 24.3
003A4CBC 2019-04-14 16:12:54 22 18 24.1
003A4CBC 2019-04-14 15:38:23 22 18 24.3
003A4CBC 2019-04-14 15:03:54 22 18 24.2
003A4CBC 2019-04-14 14:29:23 22 18 24.3
003A4CBC 2019-04-14 13:54:52 22 18 24.3
003A4CBC 2019-04-14 13:20:22 22 18 24.3
003A4CBC 2019-04-14 12:45:52 22 19 24.3
003A4CBC 2019-04-14 12:11:21 22 19 24.3
003A4CBC 2019-04-14 11:36:50 22 19 24.1
003A4CBC 2019-04-14 11:02:18 22 19 24.1
003A4CBC 2019-04-14 10:27:47 22 19 24.1
003A4CBC 2019-04-14 09:53:16 22 19 24.3
003A4CBC 2019-04-14 09:18:44 22 18 24.3
003A4CBC 2019-04-14 08:44:13 22 18 24.3
003A4CBC 2019-04-14 08:09:42 22 18 24.4
003A4CBC 2019-04-14 07:35:12 22 18 24.5
003A4CBC 2019-04-14 07:00:40 22 18 24.5
003A4CBC 2019-04-14 06:26:09 22 18 24.4
003A4CBC 2019-04-14 05:51:39 22 18 24.5
003A4CBC 2019-04-14 05:17:07 22 18 24.3
003A4CBC 2019-04-14 04:42:36 22 18 24.4
003A4CBC 2019-04-14 04:08:04 22 18 24.3
003A4CBC 2019-04-14 03:33:33 22 18 24.2
003A4CBC 2019-04-14 02:59:01 22 18 24.2
003A4CBC 2019-04-14 02:24:30 22 18 24.2
003A4CBC 2019-04-14 01:49:58 22 18 24.3
003A4CBC 2019-04-14 01:15:26 22 18 24.2
003A4CBC 2019-04-14 00:40:52 22 18 24.1
003A4CBC 2019-04-14 00:06:21 22 18 24.1
003A4CBC 2019-04-13 23:31:49 22 18 24.1
003A4CBC 2019-04-13 22:57:18 22.1 18 24.1
003A4CBC 2019-04-13 22:22:45 22.2 18 24.1
003A4CBC 2019-04-13 21:48:12 22.2 18 24.1
003A4CBC 2019-04-13 21:13:39 22.2 18 24.2
003A4CBC 2019-04-13 20:39:05 22.2 18 24.3
003A4CBC 2019-04-13 20:04:34 22.2 18 24.3
003A4CBC 2019-04-13 19:30:04 22.2 18 24.2
003A4CBC 2019-04-13 18:55:30 22.2 18 24.2
003A4CBC 2019-04-13 18:20:58 22.2 18 24.2
003A4CBC 2019-04-13 17:46:25 22.2 18 24.1
003A4CBC 2019-04-13 17:11:52 22.2 18 24.2
003A4CBC 2019-04-13 16:37:17 22.3 18 24.1
003A4CBC 2019-04-13 16:02:44 22.3 18 24.1
003A4CBC 2019-04-13 15:28:11 22.3 18 24
003A4CBC 2019-04-13 14:53:39 22.4 18 24
003A4CBC 2019-04-13 14:19:05 22.5 18 24
003A4CBC 2019-04-13 13:44:32 22.5 18 23.9
003A4CBC 2019-04-13 13:09:59 22.5 18 23.9
003A4CBC 2019-04-13 12:35:27 22.5 18 23.9
003A4CBC 2019-04-13 12:00:55 22.4 18 23.8
003A4CBC 2019-04-13 11:26:22 22.5 18 23.8
003A4CBC 2019-04-13 10:51:50 22.4 18 23.7
003A4CBC 2019-04-13 10:17:18 22.4 18 23.7
003A4CBC 2019-04-13 09:42:46 22.5 18 23.8
003A4CBC 2019-04-13 09:08:14 22.4 18 23.6
003A4CBC 2019-04-13 08:33:42 22.5 18 23.7
003A4CBC 2019-04-13 07:59:09 22.4 18 23.7
003A4CBC 2019-04-13 07:24:37 22.5 18 23.5
003A4CBC 2019-04-13 06:50:05 22.5 18 23.4
003A4CBC 2019-04-13 06:15:32 22.5 18 24
003A4CBC 2019-04-13 05:40:58 22.4 18 23.9
003A4CBC 2019-04-13 05:06:26 22.5 18 23.9
003A4CBC 2019-04-13 04:31:53 22.5 18 24.4
003A4CBC 2019-04-13 03:57:20 22.5 18 24.4
003A4CBC 2019-04-13 03:22:47 22.5 19 24.4
003A4CBC 2019-04-13 02:48:13 22.5 19 24.4
003A4CBC 2019-04-13 02:13:41 22.5 19 24.4
003A4CBC 2019-04-13 01:39:08 22.6 19 24.4
003A4CBC 2019-04-13 01:04:35 22.7 19 24.5
003A4CBC 2019-04-13 00:30:01 22.6 19 24.6
003A4CBC 2019-04-12 23:55:27 22.7 19 24.6
003A4CBC 2019-04-12 23:20:54 22.7 19 24.7
003A4CBC 2019-04-12 22:46:21 22.8 20 24.7
003A4CBC 2019-04-12 22:11:47 22.8 20 24.8
003A4CBC 2019-04-12 21:37:13 22.9 20 25
003A4CBC 2019-04-12 21:02:38 22.9 20 25.1
003A4CBC 2019-04-12 20:28:03 22.9 19 25.3
003A4CBC 2019-04-12 19:53:29 22.9 19 25.5
003A4CBC 2019-04-12 19:18:54 22.9 19 25.7
003A4CBC 2019-04-12 18:44:20 23 18 25.9
003A4CBC 2019-04-12 18:09:46 23.1 18 26
003A4CBC 2019-04-12 17:35:13 23.1 18 26
003A4CBC 2019-04-12 17:00:39 23.1 19 26.4
003A4CBC 2019-04-12 16:26:03 22.9 18 26.9
003A4CBC 2019-04-12 15:51:28 22.8 19 25.9
003A4CBC 2019-04-12 15:16:53 22.7 20 26.2
003A4CBC 2019-04-12 14:42:19 22.4 20 27.1
003A4CBC 2019-04-12 14:07:44 22 21 24.4
003A4CBC 2019-04-12 13:33:11 21.5 22 23.9
003A4CBC 2019-04-12 12:58:36 20.6 29 0